User: anonymous   Login
Location: *
(39.6167°S, 171.5333°W)
Time: 16:23:07
(UTC+00:00)
Language:

IRIDIUM 103 - Orbit

View from above orbital plane
View from above orbital plane
View from above satellite
View from above satellite

Ground track
Ground track

The orbit data is extracted from the following two-line orbital elements,

1 41918U 17003B   21208.00873050  .00000102  00000-0  29249-4 0  9993
2 41918  86.3977 114.8844 0002471  89.4785 270.6694 14.34216117237220
Epoch (UTC): 27 July 2021 00:12:34
Eccentricity: 0.0002471
inclination: 86.3977°
perigee height: 776 km
apogee height: 779 km
right ascension of ascending node: 114.8844°
argument of perigee: 89.4785°
revolutions per day: 14.34216117
mean anomaly at epoch: 270.6694°
orbit number at epoch: 23722

The dashed part of the orbit path shows where the satellite is in the earth's shadow,  

DLR